Regional Weather Roundup
Issued by NWS Cleveland, OH

Home | Current Version | Previous Version | Text Only | Print | Product List | Glossary On
Versions: 1 2 3 4 5 6 7 8 9 10 11 12 13 14 15 16 17 18 19 20 21 22 23 24 25 26 27 28 29 30 31 32 33 34 35 36 37 38 39 40 41 42 43 44 45 46 47 48 49 50
000
ASUS41 KCLE 032110
RWRCLE
OHIO REGIONAL WEATHER ROUNDUP
NATIONAL WEATHER SERVICE CLEVELAND, OH
500 PM EDT WED JUN 03 2015

NOTE: "FAIR" INDICATES FEW OR NO CLOUDS BELOW 12,000 FEET WITH NO
SIGNIFICANT WEATHER AND/OR OBSTRUCTIONS TO VISIBILITY.

OHZ001>008-015>018-024>027-034-035-043-044-032200-
   NORTHWEST OHIO

CITY           SKY/WX    TMP DP  RH WIND       PRES   REMARKS
DEFIANCE       CLOUDY    73  55  53 VRB3      30.04F
FINDLAY        MOSUNNY   74  58  57 SE9       30.03F
TOLEDO EXPRESS SUNNY     71  50  47 E9        30.05F
TOLEDO EXEC    SUNNY     70  52  52 NE9       30.07F
LIMA           CLOUDY    72  58  61 SE6       30.04F
$$

OHZ009>014-019>023-028>033-038-089-032200-
   NORTHEAST OHIO

CITY           SKY/WX    TMP DP  RH WIND       PRES   REMARKS
CLE-HOPKINS    MOSUNNY   67  53  61 NE12      30.09S
CLE-LAKEFRONT  MOSUNNY   62  53  72 NE15G22   30.06F
CUY CO. ARPT   PTSUNNY   77  57  50 SE12      30.07F
LORAIN-ELYRIA  SUNNY     68  55  63 E10       30.07F
ASHTABULA      CLOUDY    71  55  56 SE9       30.11S
AKRON-CANTON   MOSUNNY   74  56  53 SE6       30.07F
WOOSTER        CLOUDY    71  59  65 CALM      30.08S
MANSFIELD      CLOUDY    69  58  67 E5        30.08S
YOUNGSTOWN     CLOUDY    66  55  67 SE9       30.10F
$$

OHZ042-051>053-060>062-070>072-077>081-032200-
  SOUTHWEST OHIO

CITY           SKY/WX    TMP DP  RH WIND       PRES   REMARKS
CINC-COVINGTON CLOUDY    73  57  57 VRB7      30.02F
CINC-LUNKEN    CLOUDY    72  59  63 CALM      30.02F
HAMILTON       PTSUNNY   74  59  59 VRB3      30.03F
DAYTON         PTSUNNY   72  59  63 E6        30.05F
WRIGHT-PAT AFB PTSUNNY   75  58  54 E3        30.03F
DAYTON GENERAL CLOUDY    71  58  63 SE7       30.03F
WILMINGTON     CLOUDY    70  56  61 SE7       30.04F
$$

OHZ036-037-039>041-045>050-054>059-063>069-073>076-082>088-032200-
  CENTRAL AND SOUTHEAST OHIO

CITY           SKY/WX    TMP DP  RH WIND       PRES   REMARKS
COLUMBUS       CLOUDY    72  61  68 E8        30.04F
OSU AIRPORT    CLOUDY    71  60  68 NE5       30.05F
BOLTON FIELD   CLOUDY    72  61  68 SE5       30.05F
RICKENBACK AFB CLOUDY    72  61  67 SE5       30.03F
NEWARK         CLOUDY    72  60  66 CALM      30.05S
MARION         CLOUDY    70  57  63 SE8       30.06F
LANCASTER      CLOUDY    73  61  65 VRB3      30.05F
ZANESVILLE     NOT AVBL
NEW PHILLY     CLOUDY    74  58  57 VRB6      30.07F
$$


USA.gov is the U.S. government's official web portal to all federal, state and local government web resources and services.